Regional Weather Roundup
Issued by NWS

Home | Current Version | Previous Version | Text Only | Print | Product List | Glossary On
Versions: 1 2 3 4 5 6 7 8 9 10 11 12 13 14 15 16 17 18 19 20 21 22 23 24 25 26 27 28 29 30 31 32 33 34 35 36 37 38 39 40 41 42 43 44 45 46 47 48 49 50
000
ASUS43 KLMK 182210
RWRKY
KENTUCKY REGIONAL WEATHER ROUNDUP
NATIONAL WEATHER SERVICE LOUISVILLE KY
600 PM EDT FRI APR 18 2014

NOTE "FAIR" INDICATES FEW OR NO CLOUDS BELOW 12,000 FEET
WITH NO SIGNIFICANT WEATHER AND/OR OBSTRUCTIONS TO VISIBILITY.

KYZ001>023-026-027-061>063-070>075-182300-
WESTERN AND SOUTH CENTRAL KENTUCKY

CITY           SKY/WX    TMP DP  RH WIND       PRES   REMARKS
PADUCAH        SUNNY     76  43  30 NE7       30.17F
HENDERSON      SUNNY     70  39  32 NE8       30.19F
OWENSBORO      MOSUNNY   70  39  32 E3        30.20F
HOPKINSVILLE   MOSUNNY   70  45  40 CALM      30.18F
BOWLING GREEN  MOSUNNY   68  45  43 NE6       30.18F
GLASGOW        CLOUDY    68  45  42 CALM      30.19F
$$

KYZ024-025-028>034-038-045-046-053-182300-
NORTH CENTRAL KENTUCKY

CITY           SKY/WX    TMP DP  RH WIND       PRES   REMARKS
LOUISVILLE/SDF CLOUDY    71  38  29 VRB3      30.19F
LOUISVILLE/LOU PTSUNNY   74  37  26 VRB3      30.20F
FORT KNOX      PTSUNNY   70  36  28 N6        30.19F
$$

KYZ035>037-039>044-047>052-055>060-089>105-182300-
NORTHEAST KENTUCKY

CITY           SKY/WX    TMP DP  RH WIND       PRES   REMARKS
LEXINGTON      PTSUNNY   68  40  35 NW5       30.22F
COVINGTON      PTSUNNY   69  35  28 NE6       30.22F
FRANKFORT      CLOUDY    68  38  33 NW6       30.21F
$$

KYZ054-064>069-076>088-106>120-182300-
SOUTHEAST KENTUCKY

CITY           SKY/WX    TMP DP  RH WIND       PRES   REMARKS
JACKSON        CLOUDY    70  37  29 CALM      30.21F
LONDON         CLOUDY    69  39  33 CALM      30.20F
SOMERSET       PTSUNNY   66  39  37 N3        30.21F
MIDDLESBORO    CLOUDY    66  39  37 CALM      30.21F
MONTICELLO     CLOUDY    67  46  46 E7        30.22F
$$




USA.gov is the U.S. government's official web portal to all federal, state and local government web resources and services.